Flag for Croatia Weather past 2 weeks in Zagreb, Croatia

Now
45 °F

Light rain. Partly sunny.


Feels Like: 45 °F
Forecast: 38 / 42 °F
Wind: 1 mph from North

Location: Zagreb / Pleso

Current Time: Mar 4, 2015 at 5:08:02 PM

Latest Report: Mar 4, 2015 at 4:30 PM


Visibility: N/A

Pressure: 30.18 "Hg

Humidity: 87%

Dew point: 41 °F

Location of ZagrebLocation

Historic Weather in Zagreb — Graph

°F

Zagreb temperature yesterday

Maximum temperature yesterday: 57 °F (at 3:00 PM)
Minimum temperature yesterday: 34 °F (at 3:30 AM)
Average temperature yesterday: 43 °F

Past Weeks' High & Low Weather Summary

 TemperatureHumidityPressure
High57 °F (Mar 2, 10:30 AM)100% (Feb 24, 1:30 AM)30.74 "Hg (Feb 24, 1:30 AM)
Low19 °F (Feb 19, 7:00 AM)23% (Mar 3, 4:00 PM)29.59 "Hg (Feb 22, 2:00 PM)
Average41 °F75%30.03 "Hg
* Reported Feb 17 4:00 PM — Mar 4 4:00 PM, Zagreb, Weather by CustomWeather, © 2015

Note: Actual official high and low records may vary slightly from our data, if they occured in-between our weather recording intervals... More about our weather records

Advertising

Zagreb weather history for previous 24 hours

 ConditionsComfort  
Time TempWeatherWind HumidityBarometerVisibility
4:00 PM
Wed, Mar 4
45 °FLight rain. Partly sunny.3 mph87%30.18 "HgN/A
3:30 PM45 °FLight rain. Partly sunny.5 mph87%30.15 "HgN/A
3:00 PM45 °FLight rain. Scattered clouds.8 mph87%30.15 "HgN/A
2:30 PM45 °FLight rain. Partly sunny.5 mph76%30.15 "HgN/A
2:00 PM46 °FLight rain. Clear.2 mph66%30.15 "HgN/A
1:30 PM46 °FPassing clouds.2 mph62%30.15 "HgN/A
1:00 PM46 °FPassing clouds.2 mph62%30.18 "HgN/A
12:30 PM45 °FPassing clouds.3 mph61%30.18 "HgN/A
12:00 PM45 °FPassing clouds.3 mph57%30.18 "HgN/A
11:30 AM43 °FSunny.2 mph61%30.18 "Hg10 mi
11:00 AM43 °FPassing clouds.3 mph61%30.18 "HgN/A
10:30 AM41 °FSunny.1 mph66%30.18 "Hg10 mi
10:00 AM41 °FSunny.No wind70%30.18 "Hg10 mi
9:30 AM39 °FSunny.1 mph81%30.18 "Hg10 mi
9:00 AM37 °FSunny.6 mph75%30.18 "Hg10 mi
8:30 AM37 °FSunny.2 mph81%30.18 "Hg10 mi
8:00 AM36 °FSunny.2 mph87%30.18 "Hg10 mi
7:30 AM36 °FSunny.No wind87%30.18 "Hg10 mi
7:00 AM34 °FSunny.No wind93%30.18 "Hg10 mi
6:30 AM34 °FSunny.No wind93%30.18 "Hg10 mi
6:00 AM34 °FLight rain. Clear.No wind87%30.18 "HgN/A
5:30 AM34 °FClear.No wind87%30.18 "Hg10 mi
5:00 AM34 °FClear.No wind81%30.18 "Hg10 mi
4:30 AM32 °FClear.No wind87%30.18 "Hg10 mi
4:00 AM32 °FClear.No wind87%30.21 "Hg10 mi
3:30 AM30 °FClear.1 mph93%30.21 "Hg10 mi
3:00 AM30 °FClear.No wind86%30.21 "Hg10 mi
2:30 AM30 °FClear.No wind86%30.21 "Hg10 mi
2:00 AM30 °FClear.No wind86%30.24 "Hg10 mi
1:30 AM30 °FClear.1 mph86%30.24 "Hg10 mi
1:00 AM32 °FClear.No wind80%30.24 "Hg10 mi
12:30 AM32 °FClear.No wind87%30.24 "Hg10 mi
12:00 AM34 °FClear.No wind81%30.24 "Hg10 mi
11:30 PM
Tue, Mar 3
34 °FClear.No wind81%30.24 "Hg10 mi
11:00 PM36 °FClear.No wind75%30.24 "Hg10 mi
10:30 PM37 °FClear.5 mph70%30.24 "Hg10 mi
10:00 PM37 °FClear.1 mph70%30.24 "Hg10 mi
9:30 PM39 °FClear.1 mph61%30.24 "Hg10 mi
9:00 PM39 °FClear.2 mph61%30.24 "Hg10 mi
8:30 PM41 °FClear.2 mph53%30.24 "Hg10 mi
8:00 PM45 °FClear.5 mph49%30.24 "Hg10 mi
7:30 PM45 °FClear.5 mph46%30.24 "Hg10 mi
7:00 PM46 °FPassing clouds.5 mph43%30.24 "HgN/A
6:30 PM46 °FPassing clouds.3 mph43%30.24 "HgN/A
6:00 PM48 °FClear.6 mph40%30.24 "Hg10 mi
5:30 PM50 °FSunny.6 mph35%30.24 "Hg10 mi
5:00 PM52 °FPassing clouds.7 mph32%30.24 "HgN/A
Weather by CustomWeather, © 2015

See weather overviewHow to use our weather pages